Waarnemingen

Advertentie
Mijn weer
Avignon, Frankrijk (7563): temperatuur & dauwpunt: 13.09.2019 06:00:00 - 19.09.2019 06:00:00 (CEST)Avignon, Frankrijk (7563): temperatuur 5cm: 13.09.2019 06:00:00 - 19.09.2019 06:00:00 (CEST)Avignon, Frankrijk (7563): windsnelheid & windstoten: 13.09.2019 06:00:00 - 19.09.2019 06:00:00 (CEST)Avignon, Frankrijk (7563): windrichting: 13.09.2019 06:00:00 - 19.09.2019 06:00:00 (CEST)Avignon, Frankrijk (7563): luchtdruk: 13.09.2019 06:00:00 - 19.09.2019 06:00:00 (CEST)Avignon, Frankrijk (7563): zicht: 13.09.2019 06:00:00 - 19.09.2019 06:00:00 (CEST)Avignon, Frankrijk (7563): neerslag: 13.09.2019 06:00:00 - 19.09.2019 06:00:00 (CEST)
Datum & Tijd tt [°C] td [°C] tt 5cm [°C] ff [km/u] ff [kn] fx [km/u] fx [kn] dd ppp [hPa] vv [km] rr [mm]
19.09.2019 06:00:00 17,5 7,0 16,4 18 10 39 21 NNW 1016,2 60 0,0
19.09.2019 05:00:00 18,3 7,7 17,5 26 14 39 21 N 1015,9 60 0,0
19.09.2019 04:00:00 18,7 8,4 17,9 17 9 35 19 N 1016,4 59 0,0
19.09.2019 03:00:00 19,2 8,8 18,2 19 10 31 17 NNW 1016,5 60 0,0
19.09.2019 02:00:00 20,2 9,1 19,2 11 6 54 29 NNW 1016,8 60 0,0
19.09.2019 01:00:00 21,2 9,7 20,5 32 17 56 30 N 1015,5 56 0,0
19.09.2019 00:00:00 21,7 10,5 20,9 28 15 41 22 NNW 1016,6 56 0,0
18.09.2019 23:00:00 22,1 11,5 21,2 20 11 34 19 NW 1017,2 59 0,0
18.09.2019 22:00:00 23,3 11,7 22,6 21 11 40 22 NW 1017,0 60 0,0
18.09.2019 21:00:00 24,3 11,3 23,4 19 10 33 18 NW 1016,0 60 0,0
18.09.2019 20:00:00 25,2 11,0 24,2 16 9 36 20 NW 1015,3 60 0,0
18.09.2019 19:00:00 26,8 11,3 26,1 16 9 32 18 NNW 1014,4 60 0,0
18.09.2019 18:00:00 30,0 11,0 31,1 15 8 26 14 WNW 1013,8 48 0,0
18.09.2019 17:00:00 31,6 10,9 35,6 8 4 19 10 NW 1013,5 58 0,0
18.09.2019 16:00:00 31,0 11,4 35,7 8 4 23 13 N 1013,9 18 0,0
18.09.2019 15:00:00 29,8 11,8 35,1 6 3 23 13 N 1014,6 19 0,0
18.09.2019 14:00:00 28,2 12,1 31,4 7 4 21 12 NNW 1015,1 59 0,0
18.09.2019 13:00:00 26,7 11,6 30,7 10 5 26 14 NNW 1015,4 60 0,0
18.09.2019 12:00:00 25,5 12,0 27,4 14 8 26 14 NNW 1015,7 60 0,0
18.09.2019 11:00:00 24,0 11,7 24,7 17 9 30 16 NNW 1015,5 60 0,0
18.09.2019 10:00:00 22,3 12,0 21,7 23 12 34 18 N 1015,3 60 0,0
18.09.2019 09:00:00 20,7 11,9 19,1 21 12 34 18 NNW 1014,9 50 0,0
18.09.2019 08:00:00 19,4 11,7 18,3 17 9 30 16 N 1014,3 59 0,0
18.09.2019 07:00:00 19,6 12,1 18,4 14 8 29 16 N 1014,3 60 0,0
18.09.2019 06:00:00 20,8 12,5 20,1 16 8 29 16 N 1014,2 60 0,0
18.09.2019 05:00:00 21,4 12,8 20,4 13 7 28 15 N 1014,3 56 0,0
18.09.2019 04:00:00 22,3 12,0 21,5 14 7 31 17 N 1014,3 60 0,0
18.09.2019 03:00:00 23,0 11,1 22,1 14 8 32 18 N 1014,3 60 0,0
18.09.2019 02:00:00 24,2 10,5 22,8 21 11 35 19 NNW 1014,3 60 0,0
18.09.2019 01:00:00 24,2 9,0 21,7 19 10 30 16 NNW 1013,9 60 0,0
18.09.2019 00:00:00 24,4 7,9 18,7 16 9 25 13 NNW 1013,9 60 0,0
17.09.2019 23:00:00 21,9 14,5 18,5 8 4 18 10 W 1013,8 37 0,0
17.09.2019 22:00:00 23,1 15,9 20,1 3 2 22 12 ZW 1013,9 36 0,0
17.09.2019 21:00:00 25,0 16,2 24,0 16 8 24 13 WZW 1013,6 36 0,0
17.09.2019 20:00:00 26,8 16,7 25,9 18 10 29 16 WZW 1013,2 38 0,0
17.09.2019 19:00:00 29,1 16,3 29,5 19 11 29 16 WZW 1012,7 33 0,0
17.09.2019 18:00:00 34,2 12,0 36,3 16 8 29 16 NNW 1012,5 35 0,0
17.09.2019 17:00:00 35,0 11,4 38,0 17 9 31 17 NNW 1012,6 20 0,0
17.09.2019 16:00:00 34,4 12,7 38,1 19 10 28 15 NW 1013,1 60 0,0
17.09.2019 15:00:00 33,6 12,6 37,9 14 7 24 13 NW 1014,0 60 0,0
17.09.2019 14:00:00 32,3 12,5 36,8 6 4 17 9 W 1014,8 18 0,0
17.09.2019 13:00:00 30,4 12,8 33,3 5 3 15 8 N 1015,5 60 0,0
17.09.2019 12:00:00 27,3 13,6 29,6 4 2 16 9 NNO 1016,3 25 0,0
17.09.2019 11:00:00 24,8 14,0 25,3 6 3 11 6 N 1016,6 60 0,0
17.09.2019 10:00:00 22,3 14,4 20,0 3 2 8 4 N 1016,8 19 0,0
17.09.2019 09:00:00 18,8 14,3 15,1 3 2 6 3 ZW 1016,6 20 0,0
17.09.2019 08:00:00 15,3 13,5 12,6 5 3 10 5 ZO 1016,6 19 0,0
17.09.2019 07:00:00 14,4 12,3 12,0 3 2 6 4 OZO 1016,5 13 0,0
17.09.2019 06:00:00 15,3 13,0 12,7 3 2 4 2 OZO 1016,6 26 0,0
17.09.2019 05:00:00 15,6 13,3 13,0 0 0 4 2 N 1016,7 26 0,0
17.09.2019 04:00:00 15,8 13,3 13,7 2 1 5 3 NO 1017,0 20 0,0
17.09.2019 03:00:00 16,3 13,8 13,7 2 1 3 2 NNW 1017,4 20 0,0
17.09.2019 02:00:00 17,0 13,5 14,3 2 1 5 3 ZZO 1017,6 30 0,0
17.09.2019 01:00:00 17,9 14,0 15,6 2 1 7 4 ZZO 1017,9 29 0,0
17.09.2019 00:00:00 18,7 13,8 15,7 3 2 6 3 Z 1018,3 36 0,0
16.09.2019 23:00:00 20,0 14,1 17,3 3 2 10 6 OZO 1017,9 45 0,0
16.09.2019 22:00:00 20,5 13,9 17,7 6 3 11 6 ZO 1018,0 47 0,0
16.09.2019 21:00:00 22,8 14,1 20,3 7 4 13 7 Z 1017,8 55 0,0
16.09.2019 20:00:00 25,2 14,0 24,0 10 5 22 12 ZZW 1016,9 58 0,0
16.09.2019 19:00:00 27,5 14,5 27,9 16 8 34 18 WZW 1016,6 41 0,0
16.09.2019 18:00:00 29,9 15,6 32,0 22 12 33 18 WZW 1016,5 40 0,0
16.09.2019 17:00:00 33,3 11,8 37,3 13 7 21 12 WZW 1016,4 54 0,0
16.09.2019 16:00:00 33,6 12,0 38,7 7 4 20 11 WZW 1016,9 45 0,0
16.09.2019 15:00:00 32,4 12,6 37,6 9 5 20 11 W 1017,6 58 0,0
16.09.2019 14:00:00 31,5 13,3 35,5 6 3 17 9 W 1018,3 60 0,0
16.09.2019 13:00:00 29,5 12,4 33,6 9 5 20 11 NNW 1019,3 55 0,0
16.09.2019 12:00:00 28,1 14,0 30,9 8 4 16 9 N 1019,9 60 0,0
16.09.2019 11:00:00 26,1 15,2 24,7 4 2 10 6 ONO 1020,4 54 0,0
16.09.2019 10:00:00 23,0 15,6 20,7 3 2 8 4 W 1020,8 20 0,0
16.09.2019 09:00:00 18,4 14,9 15,0 0 0 6 4 N 1021,0 19 0,0
16.09.2019 08:00:00 14,8 13,3 12,5 3 2 7 4 NO 1020,9 10 0,0
16.09.2019 07:00:00 14,9 13,1 12,4 3 1 8 4 ZZO 1020,6 20 0,0
16.09.2019 06:00:00 15,1 13,1 12,7 0 0 5 3 N 1020,3 24 0,0
16.09.2019 05:00:00 15,3 13,0 13,1 3 2 4 2 N 1020,7 19 0,0
16.09.2019 04:00:00 16,0 13,7 14,1 3 2 6 4 N 1020,7 20 0,0
16.09.2019 03:00:00 16,5 13,4 14,1 3 2 6 3 O 1020,9 31 0,0
16.09.2019 02:00:00 16,9 13,2 15,0 6 3 8 4 ZO 1021,2 34 0,0
16.09.2019 01:00:00 17,8 13,5 15,8 2 1 9 5 ZZO 1021,4 38 0,0
16.09.2019 00:00:00 18,4 13,9 15,7 3 2 8 4 ZZO 1021,8 43 0,0
15.09.2019 23:00:00 19,2 13,6 16,6 5 3 6 3 O 1021,7 45 0,0
15.09.2019 22:00:00 20,4 13,8 17,5 2 1 5 3 OZO 1021,9 50 0,0
15.09.2019 21:00:00 21,9 14,3 19,3 3 1 16 9 N 1021,7 47 0,0
15.09.2019 20:00:00 25,6 13,8 24,1 9 5 16 9 WZW 1021,7 54 0,0
15.09.2019 19:00:00 27,8 13,7 28,4 11 6 27 15 WZW 1021,7 57 0,0
15.09.2019 18:00:00 29,4 13,6 31,5 16 9 35 19 WZW 1021,8 43 0,0
15.09.2019 17:00:00 30,3 14,0 34,0 21 11 38 21 WZW 1021,7 40 0,0
15.09.2019 16:00:00 31,9 13,6 36,7 16 8 30 16 WZW 1021,8 45 0,0
15.09.2019 15:00:00 32,6 14,2 37,2 8 4 27 15 WZW 1022,5 36 0,0
15.09.2019 14:00:00 31,3 13,6 36,2 6 3 20 11 ZZW 1023,5 60 0,0
15.09.2019 13:00:00 30,3 12,7 33,6 7 4 16 9 WZW 1024,1 60 0,0
15.09.2019 12:00:00 27,4 15,1 29,2 6 3 16 9 N 1024,6 45 0,0
15.09.2019 11:00:00 24,7 14,5 24,7 7 4 15 8 N 1024,9 43 0,0
15.09.2019 10:00:00 21,7 14,1 20,1 8 4 13 7 N 1024,6 32 0,0
15.09.2019 09:00:00 18,8 14,1 15,2 0 0 10 6 N 1025,0 30 0,0
15.09.2019 08:00:00 15,5 13,3 12,7 3 2 10 5 NNO 1025,0 20 0,0
15.09.2019 07:00:00 14,5 12,4 12,8 4 2 8 4 NNO 1025,0 19 0,0
15.09.2019 06:00:00 14,4 12,8 12,5 5 3 9 5 N 1024,5 15 0,0
15.09.2019 05:00:00 14,9 12,6 13,0 0 0 8 4 N 1024,9 19 0,0
15.09.2019 04:00:00 15,8 13,3 13,5 4 2 8 4 ONO 1025,3 20 0,0
15.09.2019 03:00:00 15,9 13,2 13,4 3 2 7 4 W 1025,5 27 0,0
15.09.2019 02:00:00 15,9 13,0 13,5 3 2 5 3 O 1025,7 28 0,0
15.09.2019 01:00:00 16,9 13,6 14,2 3 2 9 5 ZZO 1025,6 29 0,0
15.09.2019 00:00:00 17,2 12,7 14,4 3 2 9 5 OZO 1025,7 33 0,0
14.09.2019 23:00:00 18,4 13,3 15,8 6 4 8 5 ONO 1025,8 39 0,0
14.09.2019 22:00:00 20,5 13,9 17,7 0 0 8 5 N 1025,7 42 0,0
14.09.2019 21:00:00 24,1 13,3 22,5 8 4 21 12 ZW 1025,6 28 0,0
14.09.2019 20:00:00 26,1 13,6 24,8 10 5 16 9 ZW 1025,2 52 0,0
14.09.2019 19:00:00 28,0 13,1 28,3 6 4 17 9 ZW 1024,7 57 0,0
14.09.2019 18:00:00 29,6 12,9 30,8 10 5 21 11 W 1024,8 44 0,0
14.09.2019 17:00:00 29,3 12,3 31,4 14 7 25 14 WZW 1024,9 49 0,0
14.09.2019 16:00:00 30,1 12,1 33,0 10 6 18 10 WNW 1025,1 59 0,0
14.09.2019 15:00:00 29,5 11,5 31,7 7 4 19 10 NW 1025,5 60 0,0
14.09.2019 14:00:00 28,8 12,2 31,9 8 4 17 9 NW 1026,1 53 0,0
14.09.2019 13:00:00 28,9 12,7 31,6 9 5 16 9 W 1026,4 34 0,0
14.09.2019 12:00:00 27,2 13,5 28,9 11 6 18 10 NNW 1026,3 47 0,0
14.09.2019 11:00:00 24,4 13,6 24,1 9 5 19 11 N 1026,9 44 0,0
14.09.2019 10:00:00 20,8 13,2 18,4 3 1 9 5 NNW 1027,5 20 0,0
14.09.2019 09:00:00 17,3 13,0 13,9 4 2 11 6 N 1027,6 26 0,0
14.09.2019 08:00:00 13,7 11,9 11,4 3 2 5 3 N 1027,5 17 0,0
14.09.2019 07:00:00 13,5 11,5 11,5 2 1 8 4 N 1027,5 20 0,0
14.09.2019 06:00:00 13,3 10,8 11,6 4 2 8 4 ZZO 1027,3 26 0,0
14.09.2019 05:00:00 13,8 11,5 11,7 2 1 7 4 OZO 1027,4 30 0,0
14.09.2019 04:00:00 14,2 11,5 12,0 5 3 7 4 ZZO 1027,3 29 0,0
14.09.2019 03:00:00 15,0 11,8 12,3 2 1 3 2 NNW 1026,9 34 0,0
14.09.2019 02:00:00 15,4 12,5 12,7 5 3 9 5 ZZO 1027,1 28 0,0
14.09.2019 01:00:00 15,4 11,4 12,6 3 2 6 3 NO 1027,3 45 0,0
14.09.2019 00:00:00 16,9 11,8 13,8 0 0 7 4 N 1027,1 41 0,0
13.09.2019 23:00:00 17,6 11,6 14,4 5 3 8 4 OZO 1027,0 44 0,0
13.09.2019 22:00:00 18,9 11,2 15,4 3 2 9 5 O 1027,0 53 0,0
13.09.2019 21:00:00 21,2 11,5 18,6 8 5 11 6 ONO 1027,0 59 0,0
13.09.2019 20:00:00 24,7 10,9 21,2 5 3 18 10 Z 1027,1 58 0,0
13.09.2019 19:00:00 27,9 10,6 28,1 13 7 27 15 WZW 1026,9 60 0,0
13.09.2019 18:00:00 28,6 10,3 29,7 20 11 35 19 WZW 1027,0 32 0,0
13.09.2019 17:00:00 29,9 11,9 31,8 22 12 48 26 WZW 1027,2 57 0,0
13.09.2019 16:00:00 33,2 12,2 38,1 10 5 21 11 ZW 1027,2 50 0,0
13.09.2019 15:00:00 32,6 11,7 37,6 6 3 28 15 WZW 1027,6 59 0,0
13.09.2019 14:00:00 31,2 11,6 36,2 9 5 18 10 NNW 1028,0 60 0,0
13.09.2019 13:00:00 29,9 12,3 32,6 6 3 16 9 NO 1028,6 19 0,0
13.09.2019 12:00:00 27,2 12,4 29,6 7 4 17 9 NNW 1029,1 49 0,0
13.09.2019 11:00:00 24,4 11,7 24,7 7 4 20 11 NW 1029,3 60 0,0
13.09.2019 10:00:00 21,9 11,3 19,7 8 4 12 6 N 1029,5 41 0,0
13.09.2019 09:00:00 18,9 11,7 13,8 7 4 11 6 N 1029,1 50 0,0
13.09.2019 08:00:00 13,7 11,4 10,5 4 2 9 5 Z 1029,3 45 0,0
13.09.2019 07:00:00 12,8 10,3 10,4 2 1 8 5 ONO 1029,3 45 0,0
13.09.2019 06:00:00 12,9 10,1 10,9 7 4 10 5 ZO 1028,9 47 0,0

tt = temperatuur
td = dauwpunt
tt 5cm = temperatuur 5cm
ff = windsnelheid
fx = windstoten
dd = windrichting
ppp = luchtdruk
vv = zicht
rr = neerslag

Weerstations in de omgeving